Location: Moscow
(55.7500°N, 37.5830°E)
Time: 16:31:50
(UTC+03:00)

A-11 Canister half - Pass Details

Date: 05 December 2021
Orbit: 1516 x 1684 km, 47.2° (Epoch: 24 January)

Event Time Altitude Azimuth Distance (km) Brightness Sun altitude
Rises 05:53:03 0° 189° (S) 4,743 11.6 -22.1°
Reaches altitude 10° 05:57:12 10° 174° (S) 3,792 11.2 -21.5°
Maximum altitude 06:03:27 20° 133° (SE) 3,141 11.3 -20.7°
Drops below altitude 10° 06:09:50 10° 92° (E) 3,889 12.3 -19.8°
Sets 06:14:08 0° 77° (ENE) 4,904 12.8 -19.2°
